STARLINK-34316, 64707

Orbit data source: Space-Track

STARLINK-34316, 64707 is a payload satellite owned by SpaceX/Seattle (US) in LEO that was launched on Sat, 28 Jun 2025 UTC via an FALCON 9 launch vehicle from the Air Force Western Test Range (AFWTR). Payload-class satellites include a variety of spacecraft equipped with specific instruments for various scientific and technological missions. These include communications satellites like Starlink; space stations such as the ISS; scientific satellites like the Hubble; Earth observation satellites from companies like Planet Labs, Umbra, and HawkEye 360; GPS; miniature CubeSats for education and research; and military/defense satellites.

Loading next visibility...
Identifier
64707, 2025-142M
Orbit
LEO
Country
Flag of USUS
Related business
Manufacturer
SpaceX/Seattle
Mission
Operational Commercial Communications
Bus & Motor
STARLINK V2MO, Unknown motor
Mass
575 kg wet, ~530 kg dry
Launch date (UTC)
2025-06-28 (1 year ago)
Launch vehicle
FALCON 9
Launch site
Air Force Western Test Range (AFWTR)
Object type
Payload
Rocket body
Debris
Shape & HBR
Box + 1 Pan, 17.7 m
Radar Cross Section
41.120 m², Large (>1 m²)

Expand to show TLE details & history
Last TLE update: 16 hours ago

TLE from 16 hours ago
0 STARLINK-34316
1 64707U 25142M   26264.01832534  .00012247  00000-0  42966-3 0  9990
2 64707  70.0006 179.3929 0002371 270.2088  89.8815 15.29590063 68978
Epoch: 2026-09-21T00:26Z
TLE epoch observation values (Epoch: 2026-09-21T00:26:23.309Z)
Latitude
-0.00006°
Longitude
172.89158°
Altitude
479.491 km
Speed
7.626 km/s
True Right ascension
11h 57m 34s
True Declination
0° 00' 00"
Sunlit
Object was in daylight at epoch
Visualization orbit readout
Latitude
Unknown
Longitude
Unknown
Altitude
Unknown
Speed
Unknown
Apparent Right ascension
Unknown
Apparent Declination
Unknown
Sunlit
N/A
Visualization observer readout
Local Sidereal Time
09:56:59
Azimuth
Unknown
Elevation
Unknown
Doppler factor
Unknown
Orbital elements
Apogee altitude
476.581 km
Perigee altitude
473.332 km
Semi-major axis
6,853.093 km
Eccentricity
0.00024
Inclination
70.0006°
RAAN
179.3929°
Arg. of periapsis
270.2088°
True anomaly
89.90867°
Mean anomaly
89.8815°
Eccentric anomaly
89.89508°
Mean motion
3.82572 °/min
Orbital period
94.1 mins
BSTAR
0.00042966
Loading maneuver chart data...
Computing Atmospheric mass density...
Loading historical data...
Loading historical data...
Loading historical data...
Loading historical data...
Loading historical data...
Loading historical data...
Loading historical data...

Documentation

Showing up to 5 results
|